Lid_Strength_Index
17 16 16 16 16 16 17 17 18 18 19 17 16 16 16 15 15 15 14 14 13 13 12 11 11 10 10 10 10 10 10 10 10 10 10 10 10 11 10 10 10 8 8 8
17 14 15 17 16 16 16 17 17 18 18 15 14 14 15 15 14 14 13 13 12 12 11 11 11 10 10 9 9 9 9 9 8 9 8 9 9 10 11 10 9 8 7 7
18 15 15 18 17 17 17 16 17 20 18 15 15 14 14 14 14 13 12 12 12 11 11 10 10 9 9 9 8 8 9 9 8 8 9 9 10 10 10 8 7 5 5 6
19 17 20 16 13 13 15 15 15 15 15 15 15 14 13 12 13 12 11 11 11 11 10 9 9 9 9 9 9 9 9 9 9 8 9 9 10 10 10 9 9 8 7 5
19 18 16 15 14 14 15 17 14 15 14 12 12 12 12 11 11 11 11 11 11 10 9 9 9 9 9 9 9 9 10 10 9 8 9 9 10 11 10 10 11 11 9 9
17 19 19 15 10 9 10 18 11 12 13 13 13 16 14 11 10 10 10 10 10 9 9 9 9 8 9 9 9 9 9 9 9 8 9 10 10 10 11 11 11 10 10 11
18 18 16 11 9 9 17 16 11 11 11 11 13 13 12 10 10 9 9 9 8 9 10 9 8 9 9 9 9 8 8 8 8 7 9 9 10 10 10 11 10 10 10 11
18 18 20 10 11 15 13 11 10 10 10 11 11 11 10 10 10 10 10 9 8 9 9 8 8 9 9 9 8 7 8 8 8 7 8 8 9 10 10 11 11 11 12 12
18 18 12 10 11 10 10 10 10 10 9 10 10 10 10 10 10 9 9 9 8 9 9 8 7 8 9 8 7 7 8 8 8 7 6 8 9 10 10 10 11 12 12 13
14 11 10 9 8 8 8 9 8 8 8 8 9 9 9 9 9 9 9 9 8 9 9 9 7 7 8 7 7 7 8 8 8 8 7 6 8 9 10 10 11 11 12 12
12 10 9 9 8 8 7 6 7 7 7 8 8 9 9 9 9 8 8 8 8 8 8 8 7 7 7 7 7 8 8 8 8 8 8 7 7 7 9 9 10 11 11 12
14 10 11 10 8 6 7 7 6 7 7 7 8 8 7 8 8 8 8 8 8 8 7 7 7 7 6 6 7 8 8 8 8 8 8 8 8 7 7 8 8 10 11 11
10 8 8 7 6 5 6 6 6 6 7 8 7 7 6 7 7 6 6 7 7 7 7 7 7 7 6 6 7 8 9 8 9 9 9 9 9 8 9 8 8 8 9 10
7 6 8 6 7 5 5 5 4 5 6 7 6 7 7 7 7 7 7 6 6 6 6 6 6 7 6 6 7 8 8 8 9 9 9 9 10 10 9 9 10 10 9 9
6 6 6 6 6 6 5 6 6 7 7 7 6 6 6 6 7 7 6 6 6 6 6 6 6 7 6 6 7 8 8 8 9 9 9 9 10 10 10 11 11 10 10 10
5 4 4 6 6 6 5 7 7 7 7 6 7 6 6 6 6 6 6 6 6 6 6 6 6 6 5 6 7 8 8 8 8 9 10 10 10 10 10 11 11 11 11 11
7 7 6 6 6 6 7 7 6 7 5 6 6 5 5 5 6 5 5 5 5 5 5 5 6 5 5 6 7 7 8 8 10 9 9 9 10 10 11 11 11 12 12 11
5 5 5 5 4 4 5 5 5 5 5 4 4 4 4 4 5 4 4 4 4 4 4 5 4 5 5 5 6 7 8 8 8 9 9 8 8 9 10 10 11 11 12 11
5 5 4 4 3 3 3 3 3 4 5 5 5 5 4 4 4 4 3 4 4 4 3 3 4 4 5 5 5 6 7 7 8 9 9 9 8 8 10 10 10 11 12 12
4 4 4 3 3 2 3 3 3 3 3 4 4 4 4 4 4 3 3 4 3 3 2 3 4 4 5 5 6 5 6 7 8 8 9 9 8 8 9 10 10 11 11 12
4 3 3 3 3 3 3 3 3 3 3 3 3 4 4 4 4 4 4 4 3 3 3 4 4 4 4 5 5 5 5 6 7 8 9 9 8 8 9 9 10 11 12 12
4 4 3 4 3 3 3 3 3 3 3 3 3 3 3 4 4 4 4 4 2 6 3 3 3 4 3 7 4 4 4 6 7 7 8 9 8 8 9 10 10 11 12 12
5 4 4 4 4 4 3 3 3 3 3 3 4 4 4 4 4 4 4 2 2 4 3 2 4 7 7 4 3 4 5 6 7 8 8 8 8 8 9 10 11 12 12 13
5 5 5 4 4 5 5 4 4 3 2 3 2 3 3 3 3 3 3 5 7 7 3 4 4 8 8 4 4 4 6 7 8 8 8 10 9 9 10 11 12 12 12 13
5 5 5 5 5 5 5 5 5 4 3 3 3 3 3 3 3 2 3 3 6 4 2 7 8 8 4 4 5 6 7 8 8 8 9 9 9 10 11 11 12 12 13 13
6 6 6 5 5 5 6 5 5 4 4 4 3 3 2 2 3 4 3 4 2 4 3 4 5 4 4 5 6 7 7 8 8 9 9 9 9 10 11 12 12 12 13 13
6 6 6 5 5 5 5 5 4 4 4 3 3 3 3 3 3 4 6 2 3 3 3 4 4 4 5 6 6 7 7 8 9 9 9 9 9 10 11 12 12 12 12 13